Oklahoma City Wiley Post, OK

1:03 PM CST on December 16, 2017 (GMT -0600)
Wiley Post

Weather History for KPWA - November, 2012

Change the Weather History Date:

Sunday, November 11, 2012

  Actual Average Record
Temperature  
Mean Temperature 50 °F -  
Max Temperature 70 °F 61 °F 80 °F (1999)
Min Temperature 30 °F 37 °F 22 °F (1960)
Degree Days  
Heating Degree Days 15    
Moisture  
Dew Point 40 °F    
Average Humidity 76    
Maximum Humidity 94    
Minimum Humidity 57    
Precipitation  
Precipitation 0.51 in - - ()
Sea Level Pressure  
Sea Level Pressure 29.92 in    
Wind  
Wind Speed 14 mph (NNW)    
Max Wind Speed 25 mph    
Max Gust Speed 37 mph    
Visibility 8 miles    
Events Rain , Thunderstorm    
Averages and records for this station are not official NWS values.
T = Trace of Precipitation, MM = Missing Value Source: NWS Daily Summary

Daily Weather History Graph

Daily Weather History Graph

Search for Another Location

Airport or City:

Trip Planner

Search our weather history database for the weather conditions in past years. The results will help you decide how hot, cold, wet, or windy it might be!

Date:

Astronomy

Nov. 11, 2012 Rise Set
Actual Time 7:02 AM CST 5:26 PM CST
Civil Twilight 6:35 AM CST 5:53 PM CST
Nautical Twilight 6:05 AM CST 6:23 PM CST
Astronomical Twilight 5:35 AM CST 6:53 PM CST
Moon 4:22 AM CST (11/11) 3:47 PM CST (11/11)
Length of Visible Light 11h 17m
Length of Day
10h 23m
Waning Crescent, 7% of the Moon is Illuminated
Nov 11
Waning Crescent
Nov 13
New
Nov 20
First Quarter
Nov 28
Full
Dec 6
Last Quarter

Hourly Weather History & Observations

Time (CST) Temp. Windchill Dew Point Humidity Pressure Visibility Wind Dir Wind Speed Gust Speed Precip Events Conditions
12:53 AM 70.0 °F - 55.0 °F 59% 29.68 in 10.0 mi South 24.2 mph 34.5 mph N/A   Overcast
1:53 AM 70.0 °F - 55.0 °F 59% 29.67 in 10.0 mi South 25.3 mph 36.8 mph N/A   Partly Cloudy
2:53 AM 68.0 °F - 57.0 °F 68% 29.67 in 10.0 mi South 17.3 mph - 0.00 in   Mostly Cloudy
3:33 AM 59.0 °F - 53.6 °F 82% 29.74 in 8.0 mi NW 16.1 mph 24.2 mph 0.01 in Rain Light Rain
3:53 AM 50.0 °F - 43.0 °F 77% 29.74 in 4.0 mi NW 11.5 mph 19.6 mph 0.04 in Rain Rain
4:07 AM 50.0 °F - 44.6 °F 82% 29.78 in 2.5 mi WNW 11.5 mph 18.4 mph 0.06 in Rain Heavy Rain
4:11 AM 50.0 °F - 44.6 °F 82% 29.78 in 3.0 mi WNW 10.4 mph - 0.07 in Rain , Thunderstorm Rain
4:17 AM 48.2 °F - 44.6 °F 87% 29.77 in 2.5 mi NW 11.5 mph - 0.12 in Rain , Thunderstorm Heavy Rain
4:25 AM 50.0 °F - 44.6 °F 82% 29.77 in 4.0 mi NNW 15.0 mph - 0.13 in Rain Light Rain
4:38 AM 50.0 °F - 46.4 °F 87% 29.77 in 6.0 mi NNW 12.7 mph - 0.13 in Rain , Thunderstorm Thunderstorms and Rain
4:53 AM 50.0 °F - 46.0 °F 86% 29.78 in 1.8 mi NNW 9.2 mph - 0.25 in Rain , Thunderstorm Heavy Thunderstorms and Rain
5:05 AM 50.0 °F - 46.4 °F 87% 29.78 in 2.5 mi North 9.2 mph - 0.09 in Rain , Thunderstorm Heavy Rain
5:13 AM 50.0 °F - 46.4 °F 87% 29.78 in 5.0 mi North 10.4 mph - 0.09 in Rain , Thunderstorm Light Thunderstorms and Rain
5:35 AM 50.0 °F - 46.4 °F 87% 29.79 in 2.0 mi NNE 8.1 mph - 0.17 in Rain , Thunderstorm Light Thunderstorms and Rain
5:44 AM 50.0 °F - 46.4 °F 87% 29.79 in 7.0 mi NNE 6.9 mph - 0.18 in Rain , Thunderstorm Light Thunderstorms and Rain
5:53 AM 50.0 °F - 46.0 °F 86% 29.78 in 5.0 mi North 9.2 mph - 0.18 in Rain , Thunderstorm Rain
6:22 AM 50.0 °F - 46.4 °F 87% 29.80 in 7.0 mi North 6.9 mph - 0.01 in Rain Light Rain
6:49 AM 50.0 °F - 46.4 °F 87% 29.84 in 5.0 mi North 6.9 mph - 0.03 in Rain , Thunderstorm Light Rain
6:53 AM 50.0 °F - 46.9 °F 89% 29.83 in 4.0 mi North 5.8 mph - 0.04 in Rain , Thunderstorm Light Rain
7:03 AM 50.0 °F - 48.2 °F 94% 29.84 in 5.0 mi North 5.8 mph - 0.00 in Rain Light Rain
7:25 AM 51.8 °F - 48.2 °F 88% 29.86 in 9.0 mi NNW 6.9 mph - 0.01 in Rain Light Rain
7:46 AM 51.8 °F - 46.4 °F 82% 29.86 in 9.0 mi North 10.4 mph - 0.01 in Rain Light Rain
7:53 AM 51.8 °F - 46.4 °F 82% 29.86 in 9.0 mi North 8.1 mph - N/A Rain Light Rain
8:08 AM 51.8 °F - 46.4 °F 82% 29.87 in 9.0 mi North 12.7 mph - 0.00 in   Overcast
8:29 AM 50.0 °F - 46.4 °F 87% 29.88 in 7.0 mi North 9.2 mph - 0.00 in   Overcast
8:53 AM 50.0 °F - 46.0 °F 86% 29.88 in 5.0 mi NNW 9.2 mph 19.6 mph 0.00 in   Overcast
9:53 AM 46.9 °F - 42.1 °F 83% 29.92 in 10.0 mi NNW 16.1 mph 24.2 mph N/A   Overcast
10:36 AM 41.0 °F 32.2 °F 35.6 °F 81% 29.97 in 10.0 mi NNW 18.4 mph 24.2 mph N/A   Overcast
10:53 AM 41.0 °F 32.5 °F 35.6 °F 81% 29.97 in 10.0 mi NNW 17.3 mph 25.3 mph N/A   Overcast
11:13 AM 41.0 °F 32.2 °F 33.8 °F 76% 29.99 in 10.0 mi North 18.4 mph 28.8 mph N/A   Overcast
12:53 PM 43.0 °F 35.1 °F 30.9 °F 62% 29.99 in 10.0 mi NNW 17.3 mph 24.2 mph N/A   Mostly Cloudy
1:53 PM 42.1 °F 34.2 °F 30.0 °F 62% 30.02 in 10.0 mi NNW 16.1 mph 23.0 mph N/A   Overcast
2:53 PM 41.0 °F 32.5 °F 28.0 °F 60% 30.05 in 10.0 mi North 17.3 mph - N/A   Overcast
3:00 PM 41.0 °F 32.5 °F 28.4 °F 61% 30.06 in 10.0 mi North 17.3 mph - N/A   Overcast
3:53 PM 42.1 °F 34.5 °F 28.0 °F 58% 30.09 in 10.0 mi North 15.0 mph - N/A   Partly Cloudy
4:53 PM 41.0 °F 32.5 °F 27.0 °F 57% 30.12 in 10.0 mi NNW 17.3 mph - N/A   Clear
5:53 PM 39.0 °F 31.0 °F 26.1 °F 60% 30.16 in 10.0 mi NNW 13.8 mph - N/A   Clear
6:53 PM 37.4 °F 30.3 °F 24.8 °F 60% 30.19 in 10.0 mi NNW 10.4 mph - N/A   Clear
7:53 PM 36.0 °F 29.0 °F 25.0 °F 64% 30.23 in 10.0 mi North 9.2 mph - N/A   Clear
8:53 PM 36.0 °F 28.5 °F 23.0 °F 59% 30.26 in 10.0 mi North 10.4 mph - N/A   Clear
9:53 PM 34.0 °F 26.0 °F 21.9 °F 61% 30.29 in 10.0 mi North 10.4 mph - N/A   Clear
10:53 PM 30.9 °F 24.3 °F 21.9 °F 69% 30.31 in 10.0 mi North 6.9 mph - N/A   Clear
11:53 PM 30.9 °F 25.2 °F 21.0 °F 67% 30.33 in 10.0 mi North 5.8 mph - N/A   Clear